Miscellaneous Local Product
Issued by NWS North Platte, NE

Home | Current Version | Previous Version | Graphics & Text | Print | Product List | Glossary On
Versions: 1 2 3 4 5 6 7 8 9 10 11 12 13 14 15 16 17 18 19 20 21 22 23 24 25 26 27 28 29 30 31 32 33 34 35 36 37 38 39 40 41 42 43 44 45 46 47 48 49 50
000
AXUS43 KLBF 281710
MISLBF


WESTERN AND NORTH CENTRAL NEBRASKA HOURLY WEATHER ROUNDUP
NATIONAL WEATHER SERVICE NORTH PLATTE NE
1200 PM CDT SUN JUN 28 2015

***STATIONS NOT REPORTING VARIABLES SUCH AS SKY/WEATHER OR
PRESSURE ARE PROVIDED BY THE NEBRASKA DEPARTMENT OF
ROADS...RAWS...AND APRS NETWORKS...AND ARE NOT UNDER
NATIONAL WEATHER SERVICE QUALITY CONTROL***

...OBSERVATIONS IN AND NEAR THE EASTERN PANHANDLE OF NEBRASKA...

CITY           SKY/WX    TMP DP  RH WIND       PRES   REMARKS
PINE RIDGE     SUNNY     82  56  40 VRB6      30.10S
CHADRON        SUNNY     82  60  47 SW8       30.09F
ALLIANCE       SUNNY     83  54  36 CALM      30.14S
SIDNEY         SUNNY     83  54  36 NW5       30.18S
WHITECLAY        N/A     82  55  39 E8          N/A
CRESCENT LAKE    N/A     86  51  29 W5          N/A
BIG SPRINGS      N/A     86  53  32 CALM        N/A
$$

...OBSERVATIONS IN NORTH CENTRAL NEBRASKA...

CITY           SKY/WX    TMP DP  RH WIND       PRES   REMARKS
VALENTINE      SUNNY     81  53  37 N10G17    30.06R
THEDFORD       SUNNY     82  58  43 N9G16     30.08R
AINSWORTH      SUNNY     80  54  40 N13       30.05S
O`NEILL        SUNNY     80  55  40 N14G21    29.99S
ORD            SUNNY     84  52  33 N15G26    29.98S
BROKEN BOW     SUNNY     83  61  47 N7G20     30.03R
VALENTINE NWR    N/A     80  61  51 NW9         N/A
SPRINGVIEW       N/A     80  56  43 N8G16       N/A
HALSEY           N/A     82  56  40 NW8         N/A
BREWSTER         N/A     86  60  41 N15         N/A
ROSE             N/A     89  67  48 W16         N/A  HX  91
NEWPORT          N/A     82  50  32 W12         N/A
SARGENT          N/A     83  58  42 NE3         N/A
CHAMBERS         N/A     83  54  36 N6          N/A
EWING            N/A     80  60  49 N10G18      N/A
$$

...OBSERVATIONS IN SOUTHWEST NEBRASKA AND FAR NORTHEAST COLORADO...

CITY           SKY/WX    TMP DP  RH WIND       PRES   REMARKS
WRAY           FAIR      86  52  31 N3        30.13F
HOLYOKE        FAIR      88  55  33 E6        30.14S
IMPERIAL       SUNNY     86  57  37 NE5       30.09F
OGALLALA       SUNNY     83  56  39 CALM      30.10S
NORTH PLATTE   SUNNY     87  53  31 NW7       30.06S
MCCOOK         SUNNY     90  54  29 NW7       30.04S
LEXINGTON      SUNNY     86  57  36 N8        30.03S
PAXTON           N/A     85  59  41 CALM        N/A
GOTHENBURG       N/A     84  50  30 NW8         N/A
CALLAWAY         N/A     83  62  48 N10         N/A
$$

...NORTH PLATTE AREA...

CITY           SKY/WX    TMP DP  RH WIND       PRES   REMARKS
AIRPORT        SUNNY     87  53  31 NW7       30.06S
DOWNTOWN         N/A     84  54  35 N3          N/A
SANDRIDGE        N/A     85  54  34 CALM        N/A
HILLCREST        N/A     84  56  38 N5          N/A
$$

...SOME WEATHER OBSERVATIONS FROM AROUND THE REGION...

CITY           SKY/WX    TMP DP  RH WIND       PRES   REMARKS
DENVER         PTSUNNY   83  52  34 S5        30.23S
LARAMIE        SUNNY     80  44  27 NW6       30.34F
CHEYENNE       SUNNY     80  51  36 S6        30.27F
SCOTTSBLUFF    SUNNY     81  51  35 SE5       30.15F
RAPID CITY     SUNNY     79  57  46 E3        30.10S
PIERRE         MOSUNNY   79  56  45 N16       29.99S
WINNER         FAIR      82  51  34 N14       30.01S
SIOUX FALLS    MOSUNNY   82  58  43 N17G26    29.88R
OMAHA          PTSUNNY   85  62  46 N16       29.85R
GRAND ISLAND   SUNNY     86  55  34 N17       29.98R
KANSAS CITY    MOSUNNY   82  67  60 W14G23    29.86F
WICHITA        MOSUNNY   90  62  39 W8        29.97F HX  90
HAYS           SUNNY     93  55  27 NW13G21   29.99S HX  91
LIBERAL        SUNNY     88  63  42 S6        30.05F
GOODLAND       SUNNY     87  49  26 N9        30.11S
$$



USA.gov is the U.S. government's official web portal to all federal, state and local government web resources and services.